Year,Month,Day,Hour,Minute,Value (Times are PST for insolation in W/m^2)
2010,06,19,00,00,0.00
2010,06,19,00,01,0.00
2010,06,19,00,02,0.00
2010,06,19,00,03,0.00
2010,06,19,00,04,0.00
2010,06,19,00,05,0.00
2010,06,19,00,06,0.00
2010,06,19,00,07,0.00
2010,06,19,00,08,0.00
2010,06,19,00,09,0.00
2010,06,19,00,10,0.00
2010,06,19,00,11,0.00
2010,06,19,00,12,0.00
2010,06,19,00,13,0.00
2010,06,19,00,14,0.00
2010,06,19,00,15,0.00
2010,06,19,00,16,0.00
2010,06,19,00,17,0.00
2010,06,19,00,18,0.00
2010,06,19,00,19,0.00
2010,06,19,00,20,0.00
2010,06,19,00,21,0.00
2010,06,19,00,22,0.00
2010,06,19,00,23,0.00
2010,06,19,00,24,0.00
2010,06,19,00,25,0.00
2010,06,19,00,26,0.00
2010,06,19,00,27,0.00
2010,06,19,00,28,0.00
2010,06,19,00,29,0.00
2010,06,19,00,30,0.00
2010,06,19,00,31,0.00
2010,06,19,00,32,0.00
2010,06,19,00,33,0.00
2010,06,19,00,34,0.00
2010,06,19,00,35,0.00
2010,06,19,00,36,0.00
2010,06,19,00,37,0.00
2010,06,19,00,38,0.00
2010,06,19,00,39,0.00
2010,06,19,00,40,0.00
2010,06,19,00,41,0.00
2010,06,19,00,42,0.00
2010,06,19,00,43,0.00
2010,06,19,00,44,0.00
2010,06,19,00,45,0.00
2010,06,19,00,46,0.00
2010,06,19,00,47,0.00
2010,06,19,00,48,0.00
2010,06,19,00,49,0.00
2010,06,19,00,50,0.00
2010,06,19,00,51,0.00
2010,06,19,00,52,0.00
2010,06,19,00,53,0.00
2010,06,19,00,54,0.00
2010,06,19,00,55,0.00
2010,06,19,00,56,0.00
2010,06,19,00,57,0.00
2010,06,19,00,58,0.00
2010,06,19,00,59,0.00
2010,06,19,01,00,0.00
2010,06,19,01,01,0.00
2010,06,19,01,02,0.00
2010,06,19,01,03,0.00
2010,06,19,01,04,0.00
2010,06,19,01,05,0.00
2010,06,19,01,06,0.00
2010,06,19,01,07,0.00
2010,06,19,01,08,0.00
2010,06,19,01,09,0.00
2010,06,19,01,10,0.00
2010,06,19,01,11,0.00
2010,06,19,01,12,0.00
2010,06,19,01,13,0.00
2010,06,19,01,14,0.00
2010,06,19,01,15,0.00
2010,06,19,01,16,0.00
2010,06,19,01,17,0.00
2010,06,19,01,18,0.00
2010,06,19,01,19,0.00
2010,06,19,01,20,0.00
2010,06,19,01,21,0.00
2010,06,19,01,22,0.00
2010,06,19,01,23,0.00
2010,06,19,01,24,0.00
2010,06,19,01,25,0.00
2010,06,19,01,26,0.00
2010,06,19,01,27,0.00
2010,06,19,01,28,0.00
2010,06,19,01,29,0.00
2010,06,19,01,30,0.00
2010,06,19,01,31,0.00
2010,06,19,01,32,0.00
2010,06,19,01,33,0.00
2010,06,19,01,34,0.00
2010,06,19,01,35,0.00
2010,06,19,01,36,0.00
2010,06,19,01,37,0.00
2010,06,19,01,38,0.00
2010,06,19,01,39,0.00
2010,06,19,01,40,0.00
2010,06,19,01,41,0.00
2010,06,19,01,42,0.00
2010,06,19,01,43,0.00
2010,06,19,01,44,0.00
2010,06,19,01,45,0.00
2010,06,19,01,46,0.00
2010,06,19,01,47,0.00
2010,06,19,01,48,0.00
2010,06,19,01,49,0.00
2010,06,19,01,50,0.00
2010,06,19,01,51,0.00
2010,06,19,01,52,0.00
2010,06,19,01,53,0.00
2010,06,19,01,54,0.00
2010,06,19,01,55,0.00
2010,06,19,01,56,0.00
2010,06,19,01,57,0.00
2010,06,19,01,58,0.00
2010,06,19,01,59,0.00
2010,06,19,02,00,0.00
2010,06,19,02,01,0.00
2010,06,19,02,02,0.00
2010,06,19,02,03,0.00
2010,06,19,02,04,0.00
2010,06,19,02,05,0.00
2010,06,19,02,06,0.00
2010,06,19,02,07,0.00
2010,06,19,02,08,0.00
2010,06,19,02,09,0.00
2010,06,19,02,10,0.00
2010,06,19,02,11,0.00
2010,06,19,02,12,0.00
2010,06,19,02,13,0.00
2010,06,19,02,14,0.00
2010,06,19,02,15,0.00
2010,06,19,02,16,0.00
2010,06,19,02,17,0.00
2010,06,19,02,18,0.00
2010,06,19,02,19,0.00
2010,06,19,02,20,0.00
2010,06,19,02,21,0.00
2010,06,19,02,22,0.00
2010,06,19,02,23,0.00
2010,06,19,02,24,0.00
2010,06,19,02,25,0.00
2010,06,19,02,26,0.00
2010,06,19,02,27,0.00
2010,06,19,02,28,0.00
2010,06,19,02,29,0.00
2010,06,19,02,30,0.00
2010,06,19,02,31,0.00
2010,06,19,02,32,0.00
2010,06,19,02,33,0.00
2010,06,19,02,34,0.00
2010,06,19,02,35,0.00
2010,06,19,02,36,0.00
2010,06,19,02,37,0.00
2010,06,19,02,38,0.00
2010,06,19,02,39,0.00
2010,06,19,02,40,0.00
2010,06,19,02,41,0.00
2010,06,19,02,42,0.00
2010,06,19,02,43,0.00
2010,06,19,02,44,0.00
2010,06,19,02,45,0.00
2010,06,19,02,46,0.00
2010,06,19,02,47,0.00
2010,06,19,02,48,0.00
2010,06,19,02,49,0.00
2010,06,19,02,50,0.00
2010,06,19,02,51,0.00
2010,06,19,02,52,0.00
2010,06,19,02,53,0.00
2010,06,19,02,54,0.00
2010,06,19,02,55,0.00
2010,06,19,02,56,0.00
2010,06,19,02,57,0.00
2010,06,19,02,58,0.00
2010,06,19,02,59,0.00
2010,06,19,03,00,0.00
2010,06,19,03,01,0.00
2010,06,19,03,02,0.00
2010,06,19,03,03,0.00
2010,06,19,03,04,0.00
2010,06,19,03,05,0.00
2010,06,19,03,06,0.00
2010,06,19,03,07,0.00
2010,06,19,03,08,0.00
2010,06,19,03,09,0.00
2010,06,19,03,10,0.00
2010,06,19,03,11,0.00
2010,06,19,03,12,0.00
2010,06,19,03,13,0.00
2010,06,19,03,14,0.00
2010,06,19,03,15,0.00
2010,06,19,03,16,0.00
2010,06,19,03,17,0.00
2010,06,19,03,18,0.00
2010,06,19,03,19,0.00
2010,06,19,03,20,0.00
2010,06,19,03,21,0.00
2010,06,19,03,22,0.00
2010,06,19,03,23,0.00
2010,06,19,03,24,0.00
2010,06,19,03,25,0.00
2010,06,19,03,26,0.00
2010,06,19,03,27,0.00
2010,06,19,03,28,0.00
2010,06,19,03,29,0.00
2010,06,19,03,30,0.00
2010,06,19,03,31,0.00
2010,06,19,03,32,0.00
2010,06,19,03,33,0.00
2010,06,19,03,34,0.00
2010,06,19,03,35,0.00
2010,06,19,03,36,0.00
2010,06,19,03,37,0.00
2010,06,19,03,38,0.00
2010,06,19,03,39,0.00
2010,06,19,03,40,0.00
2010,06,19,03,41,0.00
2010,06,19,03,42,0.00
2010,06,19,03,43,0.00
2010,06,19,03,44,0.00
2010,06,19,03,45,0.00
2010,06,19,03,46,0.00
2010,06,19,03,47,0.00
2010,06,19,03,48,0.00
2010,06,19,03,49,0.00
2010,06,19,03,50,0.00
2010,06,19,03,51,0.00
2010,06,19,03,52,0.00
2010,06,19,03,53,0.00
2010,06,19,03,54,0.00
2010,06,19,03,55,0.00
2010,06,19,03,56,0.00
2010,06,19,03,57,0.00
2010,06,19,03,58,0.00
2010,06,19,03,59,0.00
2010,06,19,04,00,0.00
2010,06,19,04,01,0.00
2010,06,19,04,02,0.00
2010,06,19,04,03,0.00
2010,06,19,04,04,0.00
2010,06,19,04,05,0.00
2010,06,19,04,06,0.00
2010,06,19,04,07,0.00
2010,06,19,04,08,0.00
2010,06,19,04,09,0.00
2010,06,19,04,10,0.00
2010,06,19,04,11,0.00
2010,06,19,04,12,0.00
2010,06,19,04,13,0.00
2010,06,19,04,14,0.00
2010,06,19,04,15,0.00
2010,06,19,04,16,0.00
2010,06,19,04,17,0.00
2010,06,19,04,18,0.00
2010,06,19,04,19,0.00
2010,06,19,04,20,0.00
2010,06,19,04,21,0.00
2010,06,19,04,22,0.00
2010,06,19,04,23,0.00
2010,06,19,04,24,0.00
2010,06,19,04,25,0.00
2010,06,19,04,26,0.00
2010,06,19,04,27,0.00
2010,06,19,04,28,0.00
2010,06,19,04,29,0.00
2010,06,19,04,30,0.00
2010,06,19,04,31,0.00
2010,06,19,04,32,0.00
2010,06,19,04,33,0.00
2010,06,19,04,34,0.00
2010,06,19,04,35,0.00
2010,06,19,04,36,0.00
2010,06,19,04,37,0.00
2010,06,19,04,38,0.00
2010,06,19,04,39,0.00
2010,06,19,04,40,0.00
2010,06,19,04,41,0.00
2010,06,19,04,42,0.00
2010,06,19,04,43,0.00
2010,06,19,04,44,0.00
2010,06,19,04,45,0.00
2010,06,19,04,46,0.00
2010,06,19,04,47,0.00
2010,06,19,04,48,0.00
2010,06,19,04,49,0.00
2010,06,19,04,50,0.00
2010,06,19,04,51,0.00
2010,06,19,04,52,0.00
2010,06,19,04,53,0.00
2010,06,19,04,54,0.00
2010,06,19,04,55,0.00
2010,06,19,04,56,0.00
2010,06,19,04,57,0.00
2010,06,19,04,58,0.00
2010,06,19,04,59,0.00
2010,06,19,05,00,0.00
2010,06,19,05,01,0.00
2010,06,19,05,02,0.00
2010,06,19,05,03,0.00
2010,06,19,05,04,0.00
2010,06,19,05,05,0.00
2010,06,19,05,06,0.00
2010,06,19,05,07,0.00
2010,06,19,05,08,0.00
2010,06,19,05,09,0.00
2010,06,19,05,10,0.00
2010,06,19,05,11,0.00
2010,06,19,05,12,0.00
2010,06,19,05,13,0.00
2010,06,19,05,14,1.50
2010,06,19,05,15,5.00
2010,06,19,05,16,5.00
2010,06,19,05,17,5.00
2010,06,19,05,18,5.00
2010,06,19,05,19,5.00
2010,06,19,05,20,6.40
2010,06,19,05,21,7.00
2010,06,19,05,22,7.00
2010,06,19,05,23,7.00
2010,06,19,05,24,7.00
2010,06,19,05,25,9.00
2010,06,19,05,26,9.00
2010,06,19,05,27,9.00
2010,06,19,05,28,9.00
2010,06,19,05,29,9.00
2010,06,19,05,30,9.70
2010,06,19,05,31,11.00
2010,06,19,05,32,11.00
2010,06,19,05,33,11.00
2010,06,19,05,34,11.60
2010,06,19,05,35,12.00
2010,06,19,05,36,12.00
2010,06,19,05,37,12.00
2010,06,19,05,38,12.00
2010,06,19,05,39,13.90
2010,06,19,05,40,14.00
2010,06,19,05,41,14.20
2010,06,19,05,42,16.00
2010,06,19,05,43,16.00
2010,06,19,05,44,16.00
2010,06,19,05,45,16.70
2010,06,19,05,46,18.00
2010,06,19,05,47,18.00
2010,06,19,05,48,18.00
2010,06,19,05,49,18.60
2010,06,19,05,50,19.00
2010,06,19,05,51,19.00
2010,06,19,05,52,20.60
2010,06,19,05,53,21.00
2010,06,19,05,54,21.00
2010,06,19,05,55,21.10
2010,06,19,05,56,23.00
2010,06,19,05,57,23.30
2010,06,19,05,58,25.00
2010,06,19,05,59,25.00
2010,06,19,06,00,25.40
2010,06,19,06,01,26.00
2010,06,19,06,02,26.00
2010,06,19,06,03,26.00
2010,06,19,06,04,27.30
2010,06,19,06,05,28.00
2010,06,19,06,06,28.00
2010,06,19,06,07,29.70
2010,06,19,06,08,30.00
2010,06,19,06,09,30.00
2010,06,19,06,10,32.00
2010,06,19,06,11,32.00
2010,06,19,06,12,32.20
2010,06,19,06,13,33.00
2010,06,19,06,14,33.60
2010,06,19,06,15,35.00
2010,06,19,06,16,35.00
2010,06,19,06,17,35.90
2010,06,19,06,18,37.00
2010,06,19,06,19,38.30
2010,06,19,06,20,39.00
2010,06,19,06,21,39.00
2010,06,19,06,22,39.00
2010,06,19,06,23,39.90
2010,06,19,06,24,40.00
2010,06,19,06,25,42.00
2010,06,19,06,26,42.20
2010,06,19,06,27,44.30
2010,06,19,06,28,46.30
2010,06,19,06,29,47.60
2010,06,19,06,30,49.70
2010,06,19,06,31,51.80
2010,06,19,06,32,53.50
2010,06,19,06,33,55.20
2010,06,19,06,34,57.30
2010,06,19,06,35,59.40
2010,06,19,06,36,61.50
2010,06,19,06,37,62.80
2010,06,19,06,38,64.80
2010,06,19,06,39,68.80
2010,06,19,06,40,69.10
2010,06,19,06,41,70.20
2010,06,19,06,42,72.00
2010,06,19,06,43,72.50
2010,06,19,06,44,74.00
2010,06,19,06,45,74.00
2010,06,19,06,46,74.90
2010,06,19,06,47,76.00
2010,06,19,06,48,76.00
2010,06,19,06,49,76.60
2010,06,19,06,50,77.00
2010,06,19,06,51,78.50
2010,06,19,06,52,80.70
2010,06,19,06,53,83.70
2010,06,19,06,54,84.00
2010,06,19,06,55,83.00
2010,06,19,06,56,82.80
2010,06,19,06,57,80.70
2010,06,19,06,58,78.50
2010,06,19,06,59,77.60
2010,06,19,07,00,79.80
2010,06,19,07,01,81.80
2010,06,19,07,02,83.50
2010,06,19,07,03,87.50
2010,06,19,07,04,91.90
2010,06,19,07,05,96.40
2010,06,19,07,06,100.90
2010,06,19,07,07,104.40
2010,06,19,07,08,108.60
2010,06,19,07,09,110.90
2010,06,19,07,10,110.90
2010,06,19,07,11,109.00
2010,06,19,07,12,108.70
2010,06,19,07,13,106.50
2010,06,19,07,14,105.00
2010,06,19,07,15,104.70
2010,06,19,07,16,103.20
2010,06,19,07,17,102.00
2010,06,19,07,18,100.90
2010,06,19,07,19,100.00
2010,06,19,07,20,100.00
2010,06,19,07,21,100.00
2010,06,19,07,22,100.00
2010,06,19,07,23,100.00
2010,06,19,07,24,100.00
2010,06,19,07,25,100.00
2010,06,19,07,26,100.20
2010,06,19,07,27,102.30
2010,06,19,07,28,104.30
2010,06,19,07,29,105.60
2010,06,19,07,30,107.80
2010,06,19,07,31,109.00
2010,06,19,07,32,109.00
2010,06,19,07,33,109.00
2010,06,19,07,34,109.00
2010,06,19,07,35,107.60
2010,06,19,07,36,105.60
2010,06,19,07,37,104.20
2010,06,19,07,38,102.20
2010,06,19,07,39,102.00
2010,06,19,07,40,100.00
2010,06,19,07,41,99.80
2010,06,19,07,42,98.30
2010,06,19,07,43,100.00
2010,06,19,07,44,100.60
2010,06,19,07,45,102.70
2010,06,19,07,46,104.40
2010,06,19,07,47,105.90
2010,06,19,07,48,109.30
2010,06,19,07,49,112.90
2010,06,19,07,50,116.70
2010,06,19,07,51,121.70
2010,06,19,07,52,127.00
2010,06,19,07,53,134.30
2010,06,19,07,54,141.60
2010,06,19,07,55,149.60
2010,06,19,07,56,160.90
2010,06,19,07,57,170.40
2010,06,19,07,58,180.10
2010,06,19,07,59,193.40
2010,06,19,08,00,204.50
2010,06,19,08,01,218.60
2010,06,19,08,02,232.70
2010,06,19,08,03,227.00
2010,06,19,08,04,238.10
2010,06,19,08,05,244.00
2010,06,19,08,06,311.80
2010,06,19,08,07,326.70
2010,06,19,08,08,265.10
2010,06,19,08,09,259.90
2010,06,19,08,10,247.80
2010,06,19,08,11,279.50
2010,06,19,08,12,267.00
2010,06,19,08,13,267.00
2010,06,19,08,14,287.10
2010,06,19,08,15,322.20
2010,06,19,08,16,310.00
2010,06,19,08,17,312.50
2010,06,19,08,18,339.60
2010,06,19,08,19,384.10
2010,06,19,08,20,416.60
2010,06,19,08,21,464.10
2010,06,19,08,22,478.40
2010,06,19,08,23,451.20
2010,06,19,08,24,382.90
2010,06,19,08,25,445.00
2010,06,19,08,26,436.40
2010,06,19,08,27,360.00
2010,06,19,08,28,361.00
2010,06,19,08,29,335.60
2010,06,19,08,30,310.40
2010,06,19,08,31,275.00
2010,06,19,08,32,249.50
2010,06,19,08,33,303.70
2010,06,19,08,34,330.80
2010,06,19,08,35,308.50
2010,06,19,08,36,299.00
2010,06,19,08,37,473.30
2010,06,19,08,38,509.60
2010,06,19,08,39,512.80
2010,06,19,08,40,517.00
2010,06,19,08,41,517.00
2010,06,19,08,42,516.00
2010,06,19,08,43,509.10
2010,06,19,08,44,493.10
2010,06,19,08,45,473.50
2010,06,19,08,46,467.00
2010,06,19,08,47,458.30
2010,06,19,08,48,460.80
2010,06,19,08,49,454.10
2010,06,19,08,50,436.40
2010,06,19,08,51,432.00
2010,06,19,08,52,443.20
2010,06,19,08,53,446.00
2010,06,19,08,54,439.70
2010,06,19,08,55,423.20
2010,06,19,08,56,405.80
2010,06,19,08,57,388.40
2010,06,19,08,58,399.00
2010,06,19,08,59,415.80
2010,06,19,09,00,434.20
2010,06,19,09,01,462.50
2010,06,19,09,02,481.90
2010,06,19,09,03,492.30
2010,06,19,09,04,498.40
2010,06,19,09,05,519.20
2010,06,19,09,06,518.70
2010,06,19,09,07,523.70
2010,06,19,09,08,517.90
2010,06,19,09,09,521.70
2010,06,19,09,10,548.00
2010,06,19,09,11,512.00
2010,06,19,09,12,512.00
2010,06,19,09,13,417.50
2010,06,19,09,14,162.50
2010,06,19,09,15,212.40
2010,06,19,09,16,267.00
2010,06,19,09,17,307.00
2010,06,19,09,18,329.70
2010,06,19,09,19,283.40
2010,06,19,09,20,265.40
2010,06,19,09,21,294.80
2010,06,19,09,22,388.20
2010,06,19,09,23,421.90
2010,06,19,09,24,387.00
2010,06,19,09,25,327.80
2010,06,19,09,26,378.00
2010,06,19,09,27,388.00
2010,06,19,09,28,443.40
2010,06,19,09,29,452.80
2010,06,19,09,30,457.40
2010,06,19,09,31,403.80
2010,06,19,09,32,390.10
2010,06,19,09,33,367.00
2010,06,19,09,34,350.20
2010,06,19,09,35,340.20
2010,06,19,09,36,349.10
2010,06,19,09,37,352.20
2010,06,19,09,38,343.90
2010,06,19,09,39,341.10
2010,06,19,09,40,385.60
2010,06,19,09,41,388.00
2010,06,19,09,42,409.90
2010,06,19,09,43,535.40
2010,06,19,09,44,564.70
2010,06,19,09,45,596.40
2010,06,19,09,46,647.80
2010,06,19,09,47,721.40
2010,06,19,09,48,773.00
2010,06,19,09,49,735.70
2010,06,19,09,50,727.00
2010,06,19,09,51,729.30
2010,06,19,09,52,728.00
2010,06,19,09,53,738.70
2010,06,19,09,54,720.10
2010,06,19,09,55,728.00
2010,06,19,09,56,725.00
2010,06,19,09,57,696.10
2010,06,19,09,58,701.80
2010,06,19,09,59,751.10
2010,06,19,10,00,781.90
2010,06,19,10,01,793.10
2010,06,19,10,02,803.40
2010,06,19,10,03,810.00
2010,06,19,10,04,809.40
2010,06,19,10,05,797.30
2010,06,19,10,06,792.50
2010,06,19,10,07,793.00
2010,06,19,10,08,801.90
2010,06,19,10,09,823.00
2010,06,19,10,10,840.60
2010,06,19,10,11,844.40
2010,06,19,10,12,795.40
2010,06,19,10,13,835.00
2010,06,19,10,14,835.00
2010,06,19,10,15,835.00
2010,06,19,10,16,835.00
2010,06,19,10,17,770.10
2010,06,19,10,18,707.80
2010,06,19,10,19,738.40
2010,06,19,10,20,735.60
2010,06,19,10,21,682.50
2010,06,19,10,22,663.00
2010,06,19,10,23,663.00
2010,06,19,10,24,410.10
2010,06,19,10,25,388.00
2010,06,19,10,26,410.50
2010,06,19,10,27,439.60
2010,06,19,10,28,493.90
2010,06,19,10,29,562.40
2010,06,19,10,30,626.00
2010,06,19,10,31,626.00
2010,06,19,10,32,660.00
2010,06,19,10,33,694.00
2010,06,19,10,34,580.00
2010,06,19,10,35,504.00
2010,06,19,10,36,597.00
2010,06,19,10,37,712.20
2010,06,19,10,38,666.30
2010,06,19,10,39,619.00
2010,06,19,10,40,578.60
2010,06,19,10,41,604.00
2010,06,19,10,42,571.00
2010,06,19,10,43,575.00
2010,06,19,10,44,547.10
2010,06,19,10,45,476.40
2010,06,19,10,46,467.30
2010,06,19,10,47,469.00
2010,06,19,10,48,551.80
2010,06,19,10,49,565.30
2010,06,19,10,50,509.30
2010,06,19,10,51,524.00
2010,06,19,10,52,506.50
2010,06,19,10,53,484.00
2010,06,19,10,54,476.60
2010,06,19,10,55,439.40
2010,06,19,10,56,463.80
2010,06,19,10,57,475.70
2010,06,19,10,58,542.90
2010,06,19,10,59,567.40
2010,06,19,11,00,544.00
2010,06,19,11,01,493.50
2010,06,19,11,02,463.50
2010,06,19,11,03,411.10
2010,06,19,11,04,382.50
2010,06,19,11,05,344.10
2010,06,19,11,06,312.00
2010,06,19,11,07,300.80
2010,06,19,11,08,297.20
2010,06,19,11,09,298.90
2010,06,19,11,10,301.30
2010,06,19,11,11,306.70
2010,06,19,11,12,314.10
2010,06,19,11,13,323.00
2010,06,19,11,14,338.30
2010,06,19,11,15,364.20
2010,06,19,11,16,394.70
2010,06,19,11,17,429.10
2010,06,19,11,18,455.00
2010,06,19,11,19,563.60
2010,06,19,11,20,679.40
2010,06,19,11,21,725.80
2010,06,19,11,22,793.90
2010,06,19,11,23,770.10
2010,06,19,11,24,842.70
2010,06,19,11,25,922.70
2010,06,19,11,26,860.00
2010,06,19,11,27,881.60
2010,06,19,11,28,995.50
2010,06,19,11,29,976.30
2010,06,19,11,30,942.00
2010,06,19,11,31,942.00
2010,06,19,11,32,942.00
2010,06,19,11,33,714.80
2010,06,19,11,34,529.00
2010,06,19,11,35,720.10
2010,06,19,11,36,897.70
2010,06,19,11,37,921.00
2010,06,19,11,38,921.00
2010,06,19,11,39,921.00
2010,06,19,11,40,840.00
2010,06,19,11,41,840.00
2010,06,19,11,42,868.10
2010,06,19,11,43,1010.50
2010,06,19,11,44,988.00
2010,06,19,11,45,988.00
2010,06,19,11,46,988.00
2010,06,19,11,47,988.00
2010,06,19,11,48,652.60
2010,06,19,11,49,435.30
2010,06,19,11,50,439.00
2010,06,19,11,51,439.00
2010,06,19,11,52,439.00
2010,06,19,11,53,439.00
2010,06,19,11,54,817.00
2010,06,19,11,55,838.00
2010,06,19,11,56,838.00
2010,06,19,11,57,838.00
2010,06,19,11,58,838.00
2010,06,19,11,59,838.00
2010,06,19,12,00,938.60
2010,06,19,12,01,1102.90
2010,06,19,12,02,1072.00
2010,06,19,12,03,1051.00
2010,06,19,12,04,1051.00
2010,06,19,12,05,1051.00
2010,06,19,12,06,1051.00
2010,06,19,12,07,1051.00
2010,06,19,12,08,978.10
2010,06,19,12,09,943.50
2010,06,19,12,10,888.70
2010,06,19,12,11,935.10
2010,06,19,12,12,893.10
2010,06,19,12,13,912.00
2010,06,19,12,14,937.40
2010,06,19,12,15,931.20
2010,06,19,12,16,926.40
2010,06,19,12,17,964.30
2010,06,19,12,18,937.10
2010,06,19,12,19,927.40
2010,06,19,12,20,970.50
2010,06,19,12,21,992.60
2010,06,19,12,22,986.20
2010,06,19,12,23,985.80
2010,06,19,12,24,975.20
2010,06,19,12,25,1003.70
2010,06,19,12,26,1035.30
2010,06,19,12,27,1035.60
2010,06,19,12,28,1024.50
2010,06,19,12,29,999.90
2010,06,19,12,30,967.00
2010,06,19,12,31,915.70
2010,06,19,12,32,853.00
2010,06,19,12,33,767.80
2010,06,19,12,34,696.70
2010,06,19,12,35,703.50
2010,06,19,12,36,634.10
2010,06,19,12,37,608.00
2010,06,19,12,38,783.50
2010,06,19,12,39,879.70
2010,06,19,12,40,875.20
2010,06,19,12,41,701.60
2010,06,19,12,42,656.00
2010,06,19,12,43,746.90
2010,06,19,12,44,1083.60
2010,06,19,12,45,1067.70
2010,06,19,12,46,1049.60
2010,06,19,12,47,1041.00
2010,06,19,12,48,1028.30
2010,06,19,12,49,1011.00
2010,06,19,12,50,1005.00
2010,06,19,12,51,999.30
2010,06,19,12,52,995.60
2010,06,19,12,53,990.50
2010,06,19,12,54,988.10
2010,06,19,12,55,985.80
2010,06,19,12,56,983.30
2010,06,19,12,57,985.50
2010,06,19,12,58,983.20
2010,06,19,12,59,983.70
2010,06,19,13,00,982.30
2010,06,19,13,01,980.20
2010,06,19,13,02,980.90
2010,06,19,13,03,980.80
2010,06,19,13,04,977.70
2010,06,19,13,05,977.00
2010,06,19,13,06,977.00
2010,06,19,13,07,977.00
2010,06,19,13,08,976.10
2010,06,19,13,09,978.70
2010,06,19,13,10,977.10
2010,06,19,13,11,978.80
2010,06,19,13,12,976.80
2010,06,19,13,13,976.30
2010,06,19,13,14,977.00
2010,06,19,13,15,977.70
2010,06,19,13,16,978.20
2010,06,19,13,17,978.10
2010,06,19,13,18,980.20
2010,06,19,13,19,978.50
2010,06,19,13,20,976.30
2010,06,19,13,21,976.00
2010,06,19,13,22,976.00
2010,06,19,13,23,976.00
2010,06,19,13,24,974.20
2010,06,19,13,25,976.00
2010,06,19,13,26,976.10
2010,06,19,13,27,977.00
2010,06,19,13,28,977.00
2010,06,19,13,29,977.00
2010,06,19,13,30,977.70
2010,06,19,13,31,977.70
2010,06,19,13,32,976.00
2010,06,19,13,33,976.50
2010,06,19,13,34,980.60
2010,06,19,13,35,922.10
2010,06,19,13,36,854.00
2010,06,19,13,37,840.00
2010,06,19,13,38,987.60
2010,06,19,13,39,1012.60
2010,06,19,13,40,1021.70
2010,06,19,13,41,1038.40
2010,06,19,13,42,1073.00
2010,06,19,13,43,1105.20
2010,06,19,13,44,1138.50
2010,06,19,13,45,1167.50
2010,06,19,13,46,1187.00
2010,06,19,13,47,1187.00
2010,06,19,13,48,835.50
2010,06,19,13,49,548.00
2010,06,19,13,50,548.00
2010,06,19,13,51,548.00
2010,06,19,13,52,548.00
2010,06,19,13,53,637.10
2010,06,19,13,54,647.00
2010,06,19,13,55,518.60
2010,06,19,13,56,494.00
2010,06,19,13,57,494.00
2010,06,19,13,58,664.80
2010,06,19,13,59,1118.40
2010,06,19,14,00,1035.40
2010,06,19,14,01,991.00
2010,06,19,14,02,991.00
2010,06,19,14,03,868.30
2010,06,19,14,04,779.00
2010,06,19,14,05,1066.40
2010,06,19,14,06,1199.00
2010,06,19,14,07,1199.00
2010,06,19,14,08,653.20
2010,06,19,14,09,589.00
2010,06,19,14,10,612.40
2010,06,19,14,11,1034.00
2010,06,19,14,12,939.40
2010,06,19,14,13,561.00
2010,06,19,14,14,703.20
2010,06,19,14,15,1033.20
2010,06,19,14,16,1034.90
2010,06,19,14,17,1049.10
2010,06,19,14,18,1073.40
2010,06,19,14,19,1093.80
2010,06,19,14,20,1116.80
2010,06,19,14,21,1062.80
2010,06,19,14,22,1042.00
2010,06,19,14,23,1042.00
2010,06,19,14,24,1042.00
2010,06,19,14,25,495.70
2010,06,19,14,26,469.90
2010,06,19,14,27,462.00
2010,06,19,14,28,468.40
2010,06,19,14,29,483.80
2010,06,19,14,30,510.20
2010,06,19,14,31,549.60
2010,06,19,14,32,602.00
2010,06,19,14,33,654.10
2010,06,19,14,34,684.00
2010,06,19,14,35,896.80
2010,06,19,14,36,1054.30
2010,06,19,14,37,1107.50
2010,06,19,14,38,1113.00
2010,06,19,14,39,1113.00
2010,06,19,14,40,1086.00
2010,06,19,14,41,1086.00
2010,06,19,14,42,1086.00
2010,06,19,14,43,961.30
2010,06,19,14,44,612.00
2010,06,19,14,45,711.60
2010,06,19,14,46,842.10
2010,06,19,14,47,784.40
2010,06,19,14,48,762.60
2010,06,19,14,49,729.50
2010,06,19,14,50,687.80
2010,06,19,14,51,730.00
2010,06,19,14,52,723.40
2010,06,19,14,53,766.40
2010,06,19,14,54,724.50
2010,06,19,14,55,773.70
2010,06,19,14,56,756.80
2010,06,19,14,57,803.30
2010,06,19,14,58,784.50
2010,06,19,14,59,830.00
2010,06,19,15,00,892.90
2010,06,19,15,01,856.60
2010,06,19,15,02,850.90
2010,06,19,15,03,896.50
2010,06,19,15,04,891.30
2010,06,19,15,05,879.10
2010,06,19,15,06,915.20
2010,06,19,15,07,908.60
2010,06,19,15,08,916.60
2010,06,19,15,09,927.50
2010,06,19,15,10,922.80
2010,06,19,15,11,913.50
2010,06,19,15,12,908.00
2010,06,19,15,13,901.50
2010,06,19,15,14,897.80
2010,06,19,15,15,890.20
2010,06,19,15,16,885.20
2010,06,19,15,17,882.60
2010,06,19,15,18,881.60
2010,06,19,15,19,880.10
2010,06,19,15,20,875.60
2010,06,19,15,21,874.00
2010,06,19,15,22,864.70
2010,06,19,15,23,863.00
2010,06,19,15,24,863.00
2010,06,19,15,25,856.00
2010,06,19,15,26,855.70
2010,06,19,15,27,852.70
2010,06,19,15,28,850.20
2010,06,19,15,29,847.00
2010,06,19,15,30,844.20
2010,06,19,15,31,826.90
2010,06,19,15,32,820.10
2010,06,19,15,33,831.70
2010,06,19,15,34,831.80
2010,06,19,15,35,830.30
2010,06,19,15,36,830.80
2010,06,19,15,37,827.00
2010,06,19,15,38,823.30
2010,06,19,15,39,821.20
2010,06,19,15,40,822.80
2010,06,19,15,41,818.50
2010,06,19,15,42,814.00
2010,06,19,15,43,813.50
2010,06,19,15,44,811.40
2010,06,19,15,45,809.60
2010,06,19,15,46,808.10
2010,06,19,15,47,806.10
2010,06,19,15,48,805.00
2010,06,19,15,49,803.10
2010,06,19,15,50,800.60
2010,06,19,15,51,797.10
2010,06,19,15,52,797.70
2010,06,19,15,53,796.20
2010,06,19,15,54,795.10
2010,06,19,15,55,790.90
2010,06,19,15,56,788.90
2010,06,19,15,57,788.20
2010,06,19,15,58,789.50
2010,06,19,15,59,791.00
2010,06,19,16,00,790.30
2010,06,19,16,01,788.50
2010,06,19,16,02,786.90
2010,06,19,16,03,787.70
2010,06,19,16,04,788.40
2010,06,19,16,05,786.60
2010,06,19,16,06,786.00
2010,06,19,16,07,784.40
2010,06,19,16,08,780.40
2010,06,19,16,09,775.20
2010,06,19,16,10,779.10
2010,06,19,16,11,780.00
2010,06,19,16,12,780.40
2010,06,19,16,13,782.50
2010,06,19,16,14,784.00
2010,06,19,16,15,784.00
2010,06,19,16,16,784.00
2010,06,19,16,17,779.70
2010,06,19,16,18,773.30
2010,06,19,16,19,772.60
2010,06,19,16,20,772.30
2010,06,19,16,21,781.00
2010,06,19,16,22,768.80
2010,06,19,16,23,777.00
2010,06,19,16,24,775.20
2010,06,19,16,25,764.60
2010,06,19,16,26,758.80
2010,06,19,16,27,767.20
2010,06,19,16,28,770.20
2010,06,19,16,29,765.30
2010,06,19,16,30,754.40
2010,06,19,16,31,724.00
2010,06,19,16,32,707.50
2010,06,19,16,33,709.60
2010,06,19,16,34,703.60
2010,06,19,16,35,688.40
2010,06,19,16,36,677.40
2010,06,19,16,37,660.60
2010,06,19,16,38,648.10
2010,06,19,16,39,642.20
2010,06,19,16,40,632.90
2010,06,19,16,41,632.70
2010,06,19,16,42,647.00
2010,06,19,16,43,653.30
2010,06,19,16,44,675.70
2010,06,19,16,45,696.40
2010,06,19,16,46,714.90
2010,06,19,16,47,723.70
2010,06,19,16,48,729.60
2010,06,19,16,49,736.70
2010,06,19,16,50,744.80
2010,06,19,16,51,745.50
2010,06,19,16,52,749.80
2010,06,19,16,53,744.70
2010,06,19,16,54,719.70
2010,06,19,16,55,706.50
2010,06,19,16,56,508.10
2010,06,19,16,57,428.20
2010,06,19,16,58,434.30
2010,06,19,16,59,498.40
2010,06,19,17,00,512.40
2010,06,19,17,01,521.80
2010,06,19,17,02,504.50
2010,06,19,17,03,469.60
2010,06,19,17,04,491.70
2010,06,19,17,05,512.00